Weather in Paltsevo

Russia / Pskov Oblast     57°15′15″N   28°04′48″E
temp.,
°C
wind,
m/s
gust,
m/s
humid.,
%
clouds,
%
prec.,
mm/h
press.,
hPa
HPBL,
m
14 april, wed
wed1400:00+5n5987100 0.0 1020502
03:00+4n51092100 0.0 1020596
06:00+3nnw51195100 0.1 1020525
09:00+2n4994100 0.1 1021455
12:00+5nne4674100 0.0 1021608
15:00+7nne4561100 0.0 10211013
18:00+7nne4663100 0.0 1022876
21:00+6n386599 0.0 1022296
15 april, thu
thu1500:00+5nne4116697 0.0 1023460
03:00+3nne5127070 0.0 1023432
06:00+2nne5138382 0.0 1024454
09:00+5ne7146497 0.0 1024707
12:00+9ne7104594 0.0 10241127
15:00+11ne71044100 0.0 10231424
18:00+8ne61256100 0.0 10231185
21:00+6ne71373100 0.2 1023944
16 april, fri
fri1600:00+5ne61385100 0.4 1023777
03:00+5ne61287100 0.6 1022639
06:00+5ne61285100 0.1 1022625
09:00+6ne61278100 0.1 1022657
12:00+9ene61072100 0.1 1023763
15:00+9ne51079100 0.3 1023792
18:00+11ene6106993 0.0 10231049
21:00+9ne5117798 0.0 1024474
17 april, sat
sat1700:00+7ne41181100 0.0 1025403
03:00+5ne51180100 0.0 1025354
06:00+4ne41178100 0.0 1026358
09:00+7ene597093 0.0 1026510
12:00+12e5760100 0.0 1026913
15:00+14e5656100 0.0 10271330
18:00+14e5756100 0.0 10271383
21:00+11ne387094 0.0 1027231
18 april, sun
sun1800:00+8ene397838 0.0 1028211
03:00+6ene378225 0.0 1029157
06:00+5ene36805 0.0 1029132
09:00+9e47603 0.0 1029406
12:00+13e56435 0.0 10291068
15:00+15e56355 0.0 10291481
18:00+15e46415 0.0 10281545
21:00+9ene38595 0.0 1029130